Simultaneous Nadir Overpasses (SNOs) Predictions

Prediction of SNOs near US between AQUA and NPP Satellite Orbit:

Table of predicted SNOs near US for the next 10.0 days since TLE Epoch: 11/20/2021
Index Date (AQUA) Time (AQUA) AQUA Lat,Lon Date (NPP) Time (NPP) NPP Lat,Lon Distance(km) Time Diff (sec)
1 11/22/2021 06:30:37 46.31, -65.04 11/22/2021 06:32:09 46.77, -67.26 177.45 92
2 11/22/2021 08:08:29 49.93, -88.32 11/22/2021 08:12:35 50.45, -91.07 203.64 246
3 11/22/2021 09:47:22 49.94,-113.04 11/22/2021 09:54:02 50.61,-116.37 247.94 400
4 11/24/2021 19:06:38 49.95, -92.55 11/24/2021 19:02:48 49.57, -94.57 151.16 230
5 11/24/2021 20:45:31 49.94,-117.27 11/24/2021 20:44:16 49.47,-119.90 196.51 75
6 11/27/2021 08:34:50 21.85,-101.44 11/27/2021 08:27:00 21.93,-101.80 38.24 470
7 11/27/2021 10:11:12 30.94,-123.89 11/27/2021 10:05:53 31.11,-124.76 84.97 319
